C/2001 HT50 ( LINEAR-NEAT )

Japanese version
Home page
Total 6,336 html files since Dec. 4, 1995
Updated on September 3, 2006

---------------------------------------------------------------------

* Profile

Discovery Date April 23, 26, May 14, 2001
Magnitude 18.4, 18.5, 18.3 mag
Discoverer LINEAR, LONEOS, NEAT

* Pictures

* Orbital Elements

Epoch 2003 July 20.0 TT = JDT 2452840.5
T 2003 July  9.00761 TT                                 MPC
q   2.7920926            (2000.0)            P               Q
z  +0.0008401      Peri.  324.06713     +0.21047303     +0.95761410
 +/-0.0000012      Node    42.91333     +0.95076809     -0.24731943
e   0.9976544      Incl.  163.21197     +0.22746678     +0.14767645
>From 542 observations 2001 Mar. 3-2003 Jan. 6, mean residual 0".64.

* Finding Charts

* Magnitudes Graph

        m1 = 4.0 + 5 log d + 11.8 log r

---------------------------------------------------------------------

The orbital elements are published on M.P.E.C. 2003-A28.
The charts are made with StellaNavigator Ver.2.0 for Windows (AstroArts / ASCII).
The magnitudes graphs are made with Comet for Windows.

---------------------------------------------------------------------

Copyright(C) 1995-2008 Seiichi Yoshida (comet@aerith.net). All rights reserved.